Time,TemperatureF,DewpointF,PressureIn,WindDirection,WindDirectionDegrees,WindSpeedMPH,WindSpeedGustMPH,Humidity,HourlyPrecipIn,Conditions,Clouds,dailyrainin,SoftwareType,DateUTC
2013-01-11 00:02:00,44.0,43.0,28.08,SE,134,5.0,5.0,98,0.00,,,0.55,,2013-01-11 06:02:00,
2013-01-11 00:12:00,44.0,43.0,28.08,SE,134,5.0,5.0,98,0.00,,,0.55,,2013-01-11 06:12:00,
2013-01-11 00:22:00,44.0,43.0,28.08,SSE,154,3.0,3.0,97,0.00,,,0.55,,2013-01-11 06:22:00,
2013-01-11 00:32:00,44.0,43.0,28.08,SE,135,5.0,5.0,98,0.00,,,0.55,,2013-01-11 06:32:00,
2013-01-11 00:42:00,44.0,43.0,28.08,SE,135,5.0,5.0,98,0.00,,,0.55,,2013-01-11 06:42:00,
2013-01-11 00:52:00,44.0,43.0,28.08,SSE,149,5.0,7.0,98,0.00,,,0.55,,2013-01-11 06:52:00,
2013-01-11 01:02:00,44.0,43.0,28.08,SSE,161,5.0,5.0,98,0.00,,,0.55,,2013-01-11 07:02:00,
2013-01-11 01:12:00,44.0,43.0,28.08,SE,137,2.0,5.0,98,0.00,,,0.55,,2013-01-11 07:12:00,
2013-01-11 01:22:00,44.0,43.0,28.08,SE,137,2.0,5.0,98,0.00,,,0.55,,2013-01-11 07:22:00,
2013-01-11 01:32:00,44.0,43.0,28.08,South,176,5.0,5.0,98,0.00,,,0.55,,2013-01-11 07:32:00,
2013-01-11 01:42:00,45.0,44.0,28.08,ESE,110,5.0,13.0,98,0.00,,,0.55,,2013-01-11 07:42:00,
2013-01-11 01:52:00,45.0,44.0,28.08,ESE,110,5.0,13.0,98,0.00,,,0.55,,2013-01-11 07:52:00,
2013-01-11 02:02:00,45.0,44.0,28.08,SE,142,5.0,5.0,98,0.00,,,0.55,,2013-01-11 08:02:00,
2013-01-11 02:12:00,45.0,44.0,28.08,SE,144,3.0,8.0,98,0.00,,,0.55,,2013-01-11 08:12:00,
2013-01-11 02:22:00,45.0,44.0,28.08,SE,144,3.0,8.0,98,0.00,,,0.55,,2013-01-11 08:22:00,
2013-01-11 02:32:00,45.0,44.0,28.08,SSE,147,3.0,8.0,98,0.00,,,0.55,,2013-01-11 08:32:00,
2013-01-11 02:42:00,45.0,44.0,28.08,SSE,147,3.0,8.0,98,0.00,,,0.55,,2013-01-11 08:42:00,
2013-01-11 02:52:00,45.0,44.0,28.05,SE,144,5.0,5.0,98,0.00,,,0.55,,2013-01-11 08:52:00,
2013-01-11 03:02:00,45.0,44.0,28.05,SSE,153,5.0,5.0,98,0.00,,,0.55,,2013-01-11 09:02:00,
2013-01-11 03:12:00,45.0,44.0,28.05,SSE,153,5.0,5.0,98,0.00,,,0.55,,2013-01-11 09:12:00,
2013-01-11 03:22:00,45.0,44.0,28.02,SSE,166,3.0,6.0,98,0.00,,,0.55,,2013-01-11 09:22:00,
2013-01-11 03:32:00,46.0,45.0,28.02,SSE,152,3.0,7.0,98,0.00,,,0.55,,2013-01-11 09:32:00,
2013-01-11 03:42:00,46.0,45.0,28.02,SSE,152,3.0,7.0,98,0.00,,,0.55,,2013-01-11 09:42:00,
2013-01-11 03:52:00,46.0,45.0,28.02,SE,146,7.0,7.0,98,0.00,,,0.55,,2013-01-11 09:52:00,
2013-01-11 04:02:00,46.0,45.0,28.02,SE,130,7.0,7.0,98,0.00,,,0.55,,2013-01-11 10:02:00,
2013-01-11 04:12:00,46.0,45.0,28.02,SE,130,7.0,7.0,98,0.00,,,0.55,,2013-01-11 10:12:00,
2013-01-11 04:22:00,46.0,45.0,27.99,SE,133,7.0,7.0,98,0.00,,,0.55,,2013-01-11 10:22:00,
2013-01-11 04:32:00,46.0,45.0,27.99,SE,146,7.0,7.0,98,0.00,,,0.55,,2013-01-11 10:32:00,
2013-01-11 04:42:00,46.0,45.0,27.99,SE,146,7.0,7.0,98,0.00,,,0.55,,2013-01-11 10:42:00,
2013-01-11 04:52:00,47.0,46.0,27.96,SE,131,7.0,8.0,98,0.00,,,0.55,,2013-01-11 10:52:00,
2013-01-11 05:02:00,47.0,46.0,27.96,SSE,147,10.0,10.0,98,0.00,,,0.55,,2013-01-11 11:02:00,
2013-01-11 05:12:00,47.0,46.0,27.96,SSE,147,10.0,10.0,98,0.00,,,0.55,,2013-01-11 11:12:00,
2013-01-11 05:22:00,47.0,46.0,27.96,SE,144,5.0,9.0,98,0.00,,,0.55,,2013-01-11 11:22:00,
2013-01-11 05:32:00,47.0,46.0,27.93,ESE,115,10.0,10.0,98,0.00,,,0.47,,2013-01-11 11:32:00,
2013-01-11 05:42:00,47.0,46.0,27.93,ESE,115,10.0,10.0,98,0.00,,,0.47,,2013-01-11 11:42:00,
2013-01-11 05:53:00,47.0,46.0,27.93,SSE,163,7.0,9.0,98,0.00,,,0.47,,2013-01-11 11:53:00,
2013-01-11 06:02:00,47.0,46.0,27.93,South,183,5.0,8.0,98,0.00,,,0.47,,2013-01-11 12:02:00,
2013-01-11 06:12:00,47.0,46.0,27.93,South,183,5.0,8.0,98,0.00,,,0.47,,2013-01-11 12:12:00,
2013-01-11 06:22:00,47.0,46.0,27.93,SE,137,8.0,10.0,98,0.00,,,0.43,,2013-01-11 12:22:00,
2013-01-11 06:32:00,47.0,46.0,27.93,SE,144,5.0,7.0,98,0.00,,,0.43,,2013-01-11 12:32:00,
2013-01-11 06:42:00,47.0,46.0,27.93,SE,144,5.0,7.0,98,0.00,,,0.43,,2013-01-11 12:42:00,
2013-01-11 06:53:00,46.0,45.0,27.93,SE,135,5.0,8.0,98,0.00,,,0.39,,2013-01-11 12:53:00,
2013-01-11 07:02:00,46.0,45.0,27.93,SSE,164,5.0,9.0,98,0.00,,,0.39,,2013-01-11 13:02:00,
2013-01-11 07:12:00,46.0,45.0,27.93,SSE,164,5.0,9.0,98,0.00,,,0.39,,2013-01-11 13:12:00,
2013-01-11 07:22:00,46.0,45.0,27.93,SE,140,5.0,7.0,98,0.00,,,0.35,,2013-01-11 13:22:00,
2013-01-11 07:33:00,46.0,45.0,27.93,SE,143,5.0,7.0,97,0.00,,,0.35,,2013-01-11 13:33:00,
2013-01-11 07:42:00,46.0,45.0,27.93,SE,143,5.0,7.0,97,0.00,,,0.35,,2013-01-11 13:42:00,
2013-01-11 07:53:00,46.0,45.0,27.93,SSE,151,5.0,7.0,97,0.00,,,0.35,,2013-01-11 13:53:00,
2013-01-11 08:03:00,46.0,45.0,27.93,SE,136,7.0,10.0,96,0.00,,,0.31,,2013-01-11 14:03:00,
2013-01-11 08:12:00,46.0,44.0,27.93,ESE,103,8.0,9.0,94,0.00,,,0.31,,2013-01-11 14:12:00,
2013-01-11 08:22:00,46.0,44.0,27.93,ESE,103,8.0,9.0,94,0.00,,,0.31,,2013-01-11 14:22:00,
2013-01-11 08:33:00,46.0,44.0,27.93,SSE,162,5.0,5.0,93,0.00,,,0.28,,2013-01-11 14:33:00,
2013-01-11 08:42:00,46.0,44.0,27.93,South,170,7.0,7.0,91,0.00,,,0.24,,2013-01-11 14:42:00,
2013-01-11 08:53:00,46.0,44.0,27.93,South,170,7.0,7.0,91,0.00,,,0.24,,2013-01-11 14:53:00,
2013-01-11 09:03:00,46.0,43.0,27.96,SSW,212,7.0,7.0,89,0.00,,,0.24,,2013-01-11 15:03:00,
2013-01-11 09:12:00,47.0,43.0,27.93,SE,128,5.0,7.0,86,0.00,,,0.20,,2013-01-11 15:12:00,
2013-01-11 09:23:00,47.0,43.0,27.93,SE,128,5.0,7.0,86,0.00,,,0.20,,2013-01-11 15:23:00,
2013-01-11 09:32:00,47.0,43.0,27.96,SE,136,8.0,8.0,85,0.00,,,0.20,,2013-01-11 15:32:00,
2013-01-11 09:42:00,47.0,43.0,27.96,SE,136,8.0,8.0,85,0.00,,,0.20,,2013-01-11 15:42:00,
2013-01-11 09:53:00,47.0,42.0,27.93,South,186,7.0,7.0,83,0.00,,,0.12,,2013-01-11 15:53:00,
2013-01-11 10:02:00,47.0,42.0,27.93,SE,133,8.0,9.0,83,0.00,,,0.08,,2013-01-11 16:02:00,
2013-01-11 10:12:00,48.0,42.0,27.93,SE,134,7.0,11.0,80,0.00,,,0.04,,2013-01-11 16:12:00,
2013-01-11 10:22:00,48.0,42.0,27.93,SE,134,7.0,11.0,80,0.00,,,0.04,,2013-01-11 16:22:00,
2013-01-11 10:32:00,48.0,42.0,27.93,SSE,153,7.0,11.0,79,0.00,,,0.00,,2013-01-11 16:32:00,
2013-01-11 10:42:00,48.0,41.0,27.93,SE,141,7.0,8.0,77,0.00,,,0.00,,2013-01-11 16:42:00,
2013-01-11 10:53:00,48.0,41.0,27.93,SE,141,7.0,8.0,77,0.00,,,0.00,,2013-01-11 16:53:00,
2013-01-11 11:03:00,48.0,41.0,27.93,SSE,160,4.0,6.0,76,0.00,,,0.00,,2013-01-11 17:03:00,
2013-01-11 11:12:00,48.0,41.0,27.93,SE,139,7.0,8.0,77,0.00,,,0.00,,2013-01-11 17:12:00,
2013-01-11 11:22:00,48.0,41.0,27.93,SE,139,7.0,8.0,77,0.00,,,0.00,,2013-01-11 17:22:00,
2013-01-11 11:33:00,48.0,41.0,27.96,SSE,166,11.0,11.0,76,0.00,,,0.00,,2013-01-11 17:33:00,
2013-01-11 11:43:00,48.0,41.0,27.96,SSE,166,11.0,11.0,76,0.00,,,0.00,,2013-01-11 17:43:00,
2013-01-11 11:53:00,48.0,41.0,27.93,South,181,10.0,10.0,76,0.00,,,0.00,,2013-01-11 17:53:00,
2013-01-11 12:03:00,49.0,42.0,27.93,South,179,7.0,7.0,76,0.00,,,0.00,,2013-01-11 18:03:00,
2013-01-11 12:12:00,49.0,42.0,27.93,South,179,7.0,7.0,76,0.00,,,0.00,,2013-01-11 18:12:00,
2013-01-11 12:23:00,49.0,41.0,27.93,SE,145,5.0,9.0,75,0.00,,,0.00,,2013-01-11 18:23:00,
2013-01-11 12:32:00,49.0,41.0,27.90,SE,132,6.0,7.0,75,0.00,,,0.00,,2013-01-11 18:32:00,
2013-01-11 12:43:00,49.0,41.0,27.90,SE,132,6.0,7.0,75,0.00,,,0.00,,2013-01-11 18:43:00,
2013-01-11 12:53:00,49.0,41.0,27.87,SSE,168,5.0,7.0,74,0.00,,,0.00,,2013-01-11 18:53:00,
2013-01-11 13:02:00,50.0,42.0,27.87,SSE,165,9.0,9.0,74,0.00,,,0.00,,2013-01-11 19:02:00,
2013-01-11 13:12:00,50.0,42.0,27.87,SSE,165,9.0,9.0,74,0.00,,,0.00,,2013-01-11 19:12:00,
2013-01-11 13:22:00,50.0,41.0,27.87,SE,135,7.0,11.0,71,0.00,,,0.00,,2013-01-11 19:22:00,
2013-01-11 13:32:00,51.0,42.0,27.87,SSE,163,8.0,8.0,70,0.00,,,0.00,,2013-01-11 19:32:00,
2013-01-11 13:43:00,51.0,42.0,27.87,SSE,163,8.0,8.0,70,0.00,,,0.00,,2013-01-11 19:43:00,
2013-01-11 13:53:00,51.0,41.0,27.87,SE,140,7.0,7.0,69,0.00,,,0.00,,2013-01-11 19:53:00,
2013-01-11 14:03:00,51.0,41.0,27.84,SSE,160,7.0,7.0,68,0.00,,,0.00,,2013-01-11 20:03:00,
2013-01-11 14:12:00,51.0,41.0,27.84,SSE,160,7.0,7.0,68,0.00,,,0.00,,2013-01-11 20:12:00,
2013-01-11 14:22:00,52.0,41.0,27.84,SE,142,5.0,9.0,67,0.00,,,0.00,,2013-01-11 20:22:00,
2013-01-11 14:33:00,52.0,41.0,27.84,SE,133,7.0,7.0,65,0.00,,,0.00,,2013-01-11 20:33:00,
2013-01-11 14:43:00,52.0,41.0,27.84,SE,133,7.0,7.0,65,0.00,,,0.00,,2013-01-11 20:43:00,
2013-01-11 14:53:00,52.0,40.0,27.84,SSE,157,7.0,7.0,63,0.00,,,0.00,,2013-01-11 20:53:00,
2013-01-11 15:03:00,52.0,40.0,27.84,South,181,7.0,7.0,63,0.00,,,0.00,,2013-01-11 21:03:00,
2013-01-11 15:12:00,52.0,41.0,27.84,SSE,161,7.0,8.0,65,0.00,,,0.00,,2013-01-11 21:12:00,
2013-01-11 15:23:00,52.0,41.0,27.84,SSE,161,7.0,8.0,65,0.00,,,0.00,,2013-01-11 21:23:00,
2013-01-11 15:32:00,53.0,42.0,27.84,SE,143,9.0,9.0,65,0.00,,,0.00,,2013-01-11 21:32:00,
2013-01-11 15:42:00,53.0,42.0,27.84,SE,143,9.0,9.0,65,0.00,,,0.00,,2013-01-11 21:42:00,
2013-01-11 15:53:00,53.0,42.0,27.84,SSE,151,8.0,8.0,65,0.00,,,0.00,,2013-01-11 21:53:00,
2013-01-11 16:02:00,53.0,42.0,27.84,SSE,157,5.0,9.0,65,0.00,,,0.00,,2013-01-11 22:02:00,
2013-01-11 16:12:00,54.0,41.0,27.84,SE,139,10.0,10.0,61,0.00,,,0.00,,2013-01-11 22:12:00,
2013-01-11 16:22:00,54.0,41.0,27.84,SE,139,10.0,10.0,61,0.00,,,0.00,,2013-01-11 22:22:00,
2013-01-11 16:33:00,54.0,40.0,27.84,SE,125,7.0,9.0,59,0.00,,,0.00,,2013-01-11 22:33:00,
2013-01-11 16:42:00,54.0,40.0,27.84,SE,125,7.0,9.0,59,0.00,,,0.00,,2013-01-11 22:42:00,
2013-01-11 16:53:00,55.0,40.0,27.84,SE,145,4.0,7.0,57,0.00,,,0.00,,2013-01-11 22:53:00,
2013-01-11 17:02:00,55.0,41.0,27.84,SSE,147,5.0,8.0,58,0.00,,,0.00,,2013-01-11 23:02:00,
2013-01-11 17:12:00,55.0,41.0,27.87,SSE,151,3.0,7.0,59,0.00,,,0.00,,2013-01-11 23:12:00,
2013-01-11 17:22:00,55.0,41.0,27.87,SSE,151,3.0,7.0,59,0.00,,,0.00,,2013-01-11 23:22:00,
2013-01-11 17:32:00,55.0,41.0,27.87,SSE,148,3.0,5.0,59,0.00,,,0.00,,2013-01-11 23:32:00,
2013-01-11 17:42:00,55.0,41.0,27.87,SSE,148,3.0,5.0,59,0.00,,,0.00,,2013-01-11 23:42:00,
2013-01-11 17:53:00,55.0,41.0,27.87,South,177,5.0,7.0,59,0.00,,,0.00,,2013-01-11 23:53:00,
2013-01-11 18:02:00,55.0,41.0,27.87,SW,214,3.0,8.0,60,0.00,,,0.00,,2013-01-12 00:02:00,
2013-01-11 18:12:00,54.0,41.0,27.90,South,187,5.0,5.0,61,0.00,,,0.00,,2013-01-12 00:12:00,
2013-01-11 18:22:00,54.0,41.0,27.90,South,187,5.0,5.0,61,0.00,,,0.00,,2013-01-12 00:22:00,
2013-01-11 18:32:00,55.0,40.0,27.90,South,177,5.0,7.0,57,0.00,,,0.00,,2013-01-12 00:32:00,
2013-01-11 18:42:00,55.0,40.0,27.90,South,177,5.0,7.0,57,0.00,,,0.00,,2013-01-12 00:42:00,
2013-01-11 18:53:00,57.0,36.0,27.90,South,187,6.0,11.0,45,0.00,,,0.00,,2013-01-12 00:53:00,
2013-01-11 19:02:00,58.0,36.0,27.93,SSW,201,5.0,7.0,43,0.00,,,0.00,,2013-01-12 01:02:00,
2013-01-11 19:12:00,58.0,36.0,27.93,SSW,201,5.0,7.0,43,0.00,,,0.00,,2013-01-12 01:12:00,
2013-01-11 19:22:00,58.0,33.0,27.93,SSW,193,9.0,9.0,39,0.00,,,0.00,,2013-01-12 01:22:00,
2013-01-11 19:32:00,58.0,31.0,27.93,SSW,211,7.0,7.0,36,0.00,,,0.00,,2013-01-12 01:32:00,
2013-01-11 19:42:00,58.0,31.0,27.93,SSW,211,7.0,7.0,36,0.00,,,0.00,,2013-01-12 01:42:00,
2013-01-11 19:52:00,58.0,27.0,27.96,SW,220,15.0,15.0,30,0.00,,,0.00,,2013-01-12 01:52:00,
2013-01-11 20:02:00,57.0,22.0,27.99,SW,222,9.0,10.0,26,0.00,,,0.00,,2013-01-12 02:02:00,
2013-01-11 20:12:00,57.0,22.0,27.99,SW,222,9.0,10.0,26,0.00,,,0.00,,2013-01-12 02:12:00,
2013-01-11 20:22:00,55.0,22.0,27.99,SSW,201,3.0,5.0,27,0.00,,,0.00,,2013-01-12 02:22:00,
2013-01-11 20:32:00,54.0,20.0,27.99,SSW,210,7.0,13.0,26,0.00,,,0.00,,2013-01-12 02:32:00,
2013-01-11 20:42:00,54.0,20.0,27.99,SSW,210,7.0,13.0,26,0.00,,,0.00,,2013-01-12 02:42:00,
2013-01-11 20:53:00,53.0,19.0,28.02,WSW,239,5.0,11.0,26,0.00,,,0.00,,2013-01-12 02:53:00,
2013-01-11 21:02:00,52.0,18.0,28.02,SW,232,8.0,10.0,26,0.00,,,0.00,,2013-01-12 03:02:00,
2013-01-11 21:12:00,52.0,18.0,28.02,SW,232,8.0,10.0,26,0.00,,,0.00,,2013-01-12 03:12:00,
2013-01-11 21:22:00,51.0,18.0,28.05,West,265,7.0,15.0,27,0.00,,,0.00,,2013-01-12 03:22:00,
2013-01-11 21:32:00,50.0,19.0,28.05,SW,233,11.0,20.0,29,0.00,,,0.00,,2013-01-12 03:32:00,
2013-01-11 21:42:00,50.0,19.0,28.05,SW,233,11.0,20.0,29,0.00,,,0.00,,2013-01-12 03:42:00,
2013-01-11 21:53:00,43.0,30.0,28.11,WSW,249,7.0,11.0,59,0.00,,,0.00,,2013-01-12 03:53:00,
2013-01-11 22:02:00,41.0,29.0,28.14,WNW,290,9.0,13.0,62,0.00,,,0.00,,2013-01-12 04:02:00,
2013-01-11 22:12:00,38.0,28.0,28.14,NW,315,9.0,9.0,67,0.00,,,0.00,,2013-01-12 04:12:00,
2013-01-11 22:22:00,38.0,28.0,28.14,NW,315,9.0,9.0,67,0.00,,,0.00,,2013-01-12 04:22:00,
2013-01-11 22:32:00,38.0,29.0,28.17,NW,316,3.0,4.0,69,0.00,,,0.00,,2013-01-12 04:32:00,
2013-01-11 22:42:00,38.0,29.0,28.17,NW,316,3.0,4.0,69,0.00,,,0.00,,2013-01-12 04:42:00,
2013-01-11 22:52:00,37.0,26.0,28.17,NNW,332,11.0,11.0,65,0.00,,,0.00,,2013-01-12 04:52:00,
2013-01-11 23:03:00,36.0,25.0,28.20,NW,319,3.0,7.0,64,0.00,,,0.00,,2013-01-12 05:03:00,
2013-01-11 23:12:00,36.0,25.0,28.20,NW,319,3.0,7.0,64,0.00,,,0.00,,2013-01-12 05:12:00,
2013-01-11 23:22:00,36.0,26.0,28.20,NNW,330,5.0,6.0,68,0.00,,,0.00,,2013-01-12 05:22:00,
2013-01-11 23:32:00,35.0,24.0,28.22,NW,319,9.0,9.0,63,0.00,,,0.00,,2013-01-12 05:32:00,
2013-01-11 23:42:00,35.0,24.0,28.22,NW,319,9.0,9.0,63,0.00,,,0.00,,2013-01-12 05:42:00,
2013-01-11 23:52:00,35.0,23.0,28.22,WNW,292,3.0,7.0,62,0.00,,,0.00,,2013-01-12 05:52:00,